| time (UTC) | temp C | wind direction | speed KPH | gust KPH | rain 1hr cm | rain 24hr cm | rain mn cm | humidity % | barometer mb |
| 20260506050857 | -1 | 276 | 0.0 | 0.0 | 0.00 | 0.00 | 0.00 | 67 | 1021.6 |
| 20260506044848 | -1 | 276 | 0.0 | 0.0 | 0.00 | 0.00 | 0.00 | 67 | 1021.5 |
| 20260506043839 | -1 | 276 | 0.0 | 0.0 | 0.00 | 0.00 | 0.00 | 66 | 1021.4 |
| 20260506040536 | 0 | 276 | 0.0 | 0.0 | 0.00 | 0.00 | 0.00 | 60 | 1021.3 |
| 20260506035601 | 0 | 275 | 0.0 | 0.0 | 0.00 | 0.00 | 0.00 | 58 | 1021.2 |
| 20260506034529 | 1 | 269 | 0.0 | 0.0 | 0.00 | 0.00 | 0.00 | 54 | 1021.2 |
| 20260506033515 | 1 | 215 | 0.0 | 0.0 | 0.00 | 0.00 | 0.00 | 53 | 1021.2 |
| 20260506032508 | 2 | 215 | 0.0 | 0.0 | 0.00 | 0.00 | 0.00 | 51 | 1021.0 |
| 20260506030357 | 3 | 97 | 0.0 | 0.0 | 0.00 | 0.00 | 0.00 | 46 | 1020.7 |
| 20260506025354 | 3 | 90 | 0.0 | 0.0 | 0.00 | 0.00 | 0.00 | 45 | 1020.5 |
| 20260506024413 | 4 | 71 | 0.0 | 0.0 | 0.00 | 0.00 | 0.00 | 43 | 1020.4 |
| 20260506023432 | 5 | 65 | 0.0 | 4.8 | 0.00 | 0.00 | 0.00 | 42 | 1020.2 |
| 20260506022422 | 5 | 55 | 1.6 | 9.7 | 0.00 | 0.00 | 0.00 | 42 | 1020.1 |
| 20260506021406 | 5 | 50 | 1.6 | 9.7 | 0.00 | 0.00 | 0.00 | 41 | 1020.0 |
| 20260506015311 | 6 | 5 | 1.6 | 11.3 | 0.00 | 0.00 | 0.00 | 39 | 1019.6 |
| 20260506014256 | 6 | 347 | 3.2 | 12.9 | 0.00 | 0.00 | 0.00 | 38 | 1019.7 |
| 20260506013233 | 6 | 344 | 3.2 | 14.5 | 0.00 | 0.00 | 0.00 | 38 | 1019.6 |
| 20260506012245 | 6 | 347 | 1.6 | 14.5 | 0.00 | 0.00 | 0.00 | 38 | 1019.6 |
| 20260506011250 | 6 | 345 | 3.2 | 12.9 | 0.00 | 0.00 | 0.00 | 37 | 1019.6 |
| 20260506010218 | 7 | 351 | 3.2 | 17.7 | 0.00 | 0.00 | 0.00 | 38 | 1019.5 |
| 20260506005209 | 7 | 346 | 4.8 | 17.7 | 0.00 | 0.00 | 0.00 | 36 | 1019.5 |
| 20260506004234 | 7 | 351 | 3.2 | 16.1 | 0.00 | 0.00 | 0.00 | 39 | 1019.4 |
| 20260506003237 | 6 | 10 | 3.2 | 16.1 | 0.00 | 0.00 | 0.00 | 38 | 1019.4 |
| 20260506002243 | 7 | 347 | 4.8 | 16.1 | 0.00 | 0.00 | 0.00 | 37 | 1019.4 |
| 20260506001233 | 7 | 341 | 3.2 | 19.3 | 0.00 | 0.00 | 0.00 | 37 | 1019.4 |
| 20260505235107 | 7 | 353 | 4.8 | 19.3 | 0.00 | 0.00 | 0.00 | 40 | 1019.2 |
| 20260505234121 | 7 | 346 | 4.8 | 16.1 | 0.00 | 0.00 | 0.00 | 41 | 1019.2 |
| 20260505233131 | 7 | 332 | 4.8 | 16.1 | 0.00 | 0.00 | 0.00 | 38 | 1019.1 |
| 20260505232151 | 7 | 345 | 3.2 | 16.1 | 0.00 | 0.00 | 0.00 | 39 | 1019.0 |
| 20260505231155 | 7 | 351 | 4.8 | 16.1 | 0.00 | 0.00 | 0.00 | 39 | 1019.1 |
| 20260505230152 | 7 | 339 | 3.2 | 11.3 | 0.00 | 0.00 | 0.00 | 40 | 1019.0 |
| 20260505225133 | 7 | 346 | 4.8 | 14.5 | 0.00 | 0.00 | 0.00 | 40 | 1019.1 |
| 20260505224142 | 8 | 340 | 4.8 | 17.7 | 0.00 | 0.00 | 0.00 | 38 | 1019.0 |
| 20260505222000 | 7 | 323 | 4.8 | 19.3 | 0.00 | 0.00 | 0.00 | 41 | 1019.1 |
| 20260505220928 | 7 | 345 | 4.8 | 20.9 | 0.00 | 0.00 | 0.00 | 40 | 1019.1 |
| 20260505215946 | 7 | 341 | 4.8 | 20.9 | 0.00 | 0.00 | 0.00 | 42 | 1019.0 |
| 20260505215010 | 6 | 353 | 6.4 | 17.7 | 0.00 | 0.00 | 0.00 | 42 | 1019.1 |
| 20260505213944 | 7 | 344 | 4.8 | 14.5 | 0.00 | 0.00 | 0.00 | 41 | 1019.2 |
| 20260505212931 | 7 | 344 | 4.8 | 16.1 | 0.00 | 0.00 | 0.00 | 41 | 1019.1 |
| 20260505211903 | 7 | 348 | 4.8 | 16.1 | 0.00 | 0.00 | 0.00 | 42 | 1019.2 |
| 20260505210926 | 7 | 347 | 4.8 | 16.1 | 0.00 | 0.00 | 0.00 | 42 | 1019.2 |
| 20260505205853 | 7 | 345 | 6.4 | 17.7 | 0.00 | 0.00 | 0.00 | 42 | 1019.1 |
| 20260505202558 | 7 | 332 | 6.4 | 17.7 | 0.00 | 0.00 | 0.00 | 40 | 1019.4 |
| 20260505201623 | 7 | 351 | 4.8 | 20.9 | 0.00 | 0.00 | 0.00 | 45 | 1019.4 |
| 20260505200609 | 7 | 332 | 6.4 | 20.9 | 0.00 | 0.00 | 0.00 | 45 | 1019.5 |
| 20260505195600 | 6 | 351 | 4.8 | 14.5 | 0.00 | 0.00 | 0.00 | 44 | 1019.4 |
| 20260505194545 | 6 | 352 | 4.8 | 17.7 | 0.00 | 0.00 | 0.00 | 44 | 1019.4 |
| 20260505193513 | 6 | 351 | 6.4 | 17.7 | 0.00 | 0.00 | 0.00 | 46 | 1019.5 |
| 20260505192504 | 5 | 357 | 6.4 | 17.7 | 0.00 | 0.00 | 0.00 | 51 | 1019.6 |
| 20260505191454 | 6 | 352 | 4.8 | 14.5 | 0.00 | 0.00 | 0.00 | 45 | 1019.6 |
| 20260505190515 | 6 | 350 | 4.8 | 14.5 | 0.00 | 0.00 | 0.00 | 48 | 1019.6 |
| 20260505185515 | 5 | 332 | 4.8 | 16.1 | 0.00 | 0.00 | 0.00 | 50 | 1019.6 |
| 20260505184510 | 5 | 13 | 6.4 | 16.1 | 0.00 | 0.00 | 0.00 | 49 | 1019.6 |
| 20260505182336 | 5 | 7 | 6.4 | 16.1 | 0.00 | 0.00 | 0.00 | 49 | 1019.6 |
| 20260505181321 | 6 | 351 | 4.8 | 6.4 | 0.00 | 0.00 | 0.00 | 48 | 1019.5 |
| 20260505175617 | 5 | 304 | 3.2 | 14.5 | 0.00 | 0.00 | 0.00 | 51 | 1019.5 |
| 20260505174617 | 5 | 223 | 4.8 | 14.5 | 0.00 | 0.00 | 0.00 | 52 | 1019.6 |
| 20260505173549 | 5 | 291 | 3.2 | 14.5 | 0.00 | 0.00 | 0.00 | 51 | 1019.5 |
| 20260505172526 | 5 | 247 | 4.8 | 17.7 | 0.00 | 0.00 | 0.00 | 51 | 1019.5 |
| 20260505171536 | 5 | 256 | 4.8 | 17.7 | 0.00 | 0.00 | 0.00 | 53 | 1019.3 |
| 20260505163206 | 5 | 328 | 4.8 | 17.7 | 0.00 | 0.00 | 0.00 | 53 | 1019.4 |
| 20260505162209 | 5 | 345 | 6.4 | 17.7 | 0.00 | 0.00 | 0.00 | 52 | 1019.3 |
| 20260505161210 | 5 | 340 | 4.8 | 14.5 | 0.00 | 0.00 | 0.00 | 55 | 1019.3 |
| 20260505160233 | 4 | 1 | 4.8 | 14.5 | 0.00 | 0.00 | 0.00 | 54 | 1019.3 |
| 20260505153247 | 3 | 43 | 1.6 | 16.1 | 0.00 | 0.00 | 0.00 | 56 | 1019.5 |
| 20260505152306 | 3 | 32 | 3.2 | 14.5 | 0.00 | 0.00 | 0.00 | 56 | 1019.6 |
| 20260505151232 | 3 | 37 | 3.2 | 14.5 | 0.00 | 0.00 | 0.00 | 58 | 1019.5 |
| 20260505150222 | 3 | 43 | 3.2 | 12.9 | 0.00 | 0.00 | 0.00 | 59 | 1019.6 |
| 20260505140232 | 2 | 220 | 0.0 | 6.4 | 0.00 | 0.00 | 0.00 | 66 | 1019.3 |